When you browse on this site, cookies collect data to enhance your experience and personalize the content and advertising you see.
Visit our Privacy Policy to learn more. By continuing to use the site, you agree to this use of cookies and data.
  • Em Portugal
  • Lista de países
  • Para 7 dias
  • Temperatura da água
  • Mapa do tempo
  • Widgets de tempo
  • user-avatar
    Iniciar Sessão

    Previsão horária em Novopanshino

    Hoje, 5 Junho, Sexta-feira

    Tempo Temperatura Precipitação Vento Pressão Humidade
    00:00 +8°C° 0 mm 1 m/s 749 mmHg 76%
    01:00 +8°C° 0 mm 1 m/s 749 mmHg 79%
    02:00 +8°C° 0 mm 1 m/s 750 mmHg 81%
    03:00 +7°C° 0 mm 1 m/s 750 mmHg 82%
    04:00 +7°C° 0 mm 1 m/s 750 mmHg 84%
    05:00 +10°C° 0 mm 1 m/s 750 mmHg 75%
    06:00 +12°C° 0 mm 1 m/s 750 mmHg 67%
    07:00 +14°C° 0 mm 1 m/s 750 mmHg 58%
    08:00 +15°C° 0 mm 1 m/s 750 mmHg 51%
    09:00 +17°C° 0 mm 2 m/s 750 mmHg 44%
    10:00 +18°C° 0 mm 2 m/s 750 mmHg 37%
    11:00 +19°C° 0 mm 2 m/s 750 mmHg 35%
    12:00 +21°C° 0 mm 1 m/s 749 mmHg 33%
    13:00 +22°C° 0 mm 1 m/s 749 mmHg 31%
    14:00 +23°C° 0 mm 1 m/s 749 mmHg 31%
    15:00 +23°C° 0 mm 1 m/s 749 mmHg 31%
    16:00 +23°C° 0 mm 1 m/s 749 mmHg 30%
    17:00 +22°C° 0 mm 1 m/s 749 mmHg 37%
    18:00 +21°C° 0 mm 1 m/s 749 mmHg 43%
    19:00 +19°C° 0 mm 1 m/s 749 mmHg 49%
    20:00 +16°C° 0 mm 2 m/s 749 mmHg 57%
    21:00 +14°C° 0 mm 2 m/s 749 mmHg 64%
    22:00 +12°C° 0 mm 2 m/s 750 mmHg 72%
    23:00 +12°C° 0 mm 2 m/s 750 mmHg 75%

    Amanhã, 6 Junho, Sábado

    Tempo Temperatura Precipitação Vento Pressão Humidade
    00:00 +10°C° 0 mm 2 m/s 750 mmHg 78%
    01:00 +11°C° 0 mm 1 m/s 750 mmHg 81%
    02:00 +11°C° 0 mm 1 m/s 750 mmHg 82%
    03:00 +10°C° 0 mm 1 m/s 750 mmHg 83%
    04:00 +10°C° 0 mm 1 m/s 750 mmHg 83%
    05:00 +12°C° 0 mm 1 m/s 750 mmHg 77%
    06:00 +15°C° 0 mm 2 m/s 750 mmHg 71%
    07:00 +17°C° 0 mm 2 m/s 750 mmHg 64%
    08:00 +18°C° 0 mm 2 m/s 750 mmHg 57%
    09:00 +20°C° 0 mm 2 m/s 750 mmHg 51%
    10:00 +23°C° 0 mm 2 m/s 750 mmHg 44%
    11:00 +24°C° 0 mm 2 m/s 750 mmHg 41%
    12:00 +25°C° 0 mm 2 m/s 749 mmHg 39%
    13:00 +25°C° 0 mm 2 m/s 749 mmHg 36%
    14:00 +25°C° 0 mm 2 m/s 749 mmHg 36%
    15:00 +26°C° 0 mm 2 m/s 749 mmHg 36%
    16:00 +26°C° 0 mm 2 m/s 749 mmHg 36%
    17:00 +24°C° 0 mm 2 m/s 748 mmHg 43%
    18:00 +23°C° 0 mm 2 m/s 748 mmHg 50%
    19:00 +21°C° 0 mm 2 m/s 748 mmHg 57%
    20:00 +19°C° 0 mm 2 m/s 748 mmHg 62%
    21:00 +17°C° 0 mm 2 m/s 748 mmHg 66%
    22:00 +15°C° 0 mm 2 m/s 749 mmHg 71%
    23:00 +14°C° 0 mm 2 m/s 749 mmHg 72%

    Depois de amanhã, 7 Junho, Domingo

    Tempo Temperatura Precipitação Vento Pressão Humidade
    00:00 +14°C° 0 mm 2 m/s 749 mmHg 72%
    01:00 +13°C° 0 mm 2 m/s 749 mmHg 73%
    02:00 +13°C° 0 mm 2 m/s 749 mmHg 73%
    03:00 +13°C° 0 mm 2 m/s 749 mmHg 72%
    04:00 +13°C° 0 mm 1 m/s 750 mmHg 72%
    05:00 +15°C° 0 mm 1 m/s 750 mmHg 67%
    06:00 +18°C° 0 mm 1 m/s 750 mmHg 62%
    07:00 +20°C° 0 mm 1 m/s 750 mmHg 57%
    08:00 +22°C° 0 mm 1 m/s 750 mmHg 51%
    09:00 +23°C° 0 mm 2 m/s 750 mmHg 45%
    10:00 +25°C° 0 mm 2 m/s 750 mmHg 40%
    11:00 +26°C° 0 mm 2 m/s 750 mmHg 36%
    12:00 +27°C° 0 mm 2 m/s 750 mmHg 33%
    13:00 +27°C° 0 mm 2 m/s 750 mmHg 30%
    14:00 +27°C° 0 mm 2 m/s 750 mmHg 30%
    15:00 +28°C° 0 mm 1 m/s 749 mmHg 30%
    16:00 +28°C° 0 mm 1 m/s 749 mmHg 30%
    17:00 +26°C° 0 mm 1 m/s 749 mmHg 37%
    18:00 +25°C° 0 mm 1 m/s 749 mmHg 44%
    19:00 +24°C° 0 mm 1 m/s 749 mmHg 51%
    20:00 +22°C° 0 mm 1 m/s 749 mmHg 55%
    21:00 +20°C° 0 mm 1 m/s 749 mmHg 59%
    22:00 +16°C° 0 mm 1 m/s 750 mmHg 63%
    23:00 +16°C° 0 mm 2 m/s 750 mmHg 65%

    8 Junho, Segunda-feira

    Tempo Temperatura Precipitação Vento Pressão Humidade
    00:00 +15°C° 0 mm 2 m/s 750 mmHg 67%
    01:00 +15°C° 0 mm 2 m/s 750 mmHg 69%
    02:00 +14°C° 0 mm 2 m/s 750 mmHg 71%
    03:00 +14°C° 0 mm 1 m/s 750 mmHg 73%
    04:00 +14°C° 0 mm 1 m/s 751 mmHg 76%
    05:00 +16°C° 0 mm 1 m/s 751 mmHg 70%
    06:00 +19°C° 0 mm 1 m/s 751 mmHg 64%
    07:00 +21°C° 0 mm 1 m/s 751 mmHg 59%
    08:00 +23°C° 0 mm 2 m/s 751 mmHg 53%
    09:00 +25°C° 0 mm 3 m/s 751 mmHg 47%
    10:00 +26°C° 0 mm 3 m/s 751 mmHg 41%
    11:00 +27°C° 0 mm 3 m/s 751 mmHg 40%
    12:00 +27°C° 0 mm 4 m/s 751 mmHg 38%
    13:00 +28°C° 0 mm 4 m/s 750 mmHg 36%
    14:00 +28°C° 0 mm 4 m/s 750 mmHg 37%
    15:00 +28°C° 0 mm 4 m/s 750 mmHg 38%
    16:00 +28°C° 0 mm 4 m/s 750 mmHg 39%
    17:00 +27°C° 0 mm 3 m/s 750 mmHg 46%
    18:00 +26°C° 0 mm 3 m/s 750 mmHg 53%
    19:00 +25°C° 0 mm 2 m/s 749 mmHg 61%
    20:00 +23°C° 0 mm 2 m/s 750 mmHg 67%
    21:00 +20°C° 0 mm 2 m/s 750 mmHg 73%
    22:00 +18°C° 0 mm 2 m/s 750 mmHg 80%
    23:00 +18°C° 0 mm 2 m/s 750 mmHg 80%

    9 Junho, Terça-feira

    Tempo Temperatura Precipitação Vento Pressão Humidade
    00:00 +17°C° 0 mm 2 m/s 750 mmHg 81%
    01:00 +16°C° 0 mm 2 m/s 750 mmHg 81%
    02:00 +16°C° 0 mm 3 m/s 750 mmHg 81%
    03:00 +16°C° 0 mm 3 m/s 750 mmHg 80%
    04:00 +16°C° 0 mm 3 m/s 750 mmHg 79%
    05:00 +18°C° 0 mm 3 m/s 751 mmHg 74%
    06:00 +20°C° 0 mm 3 m/s 751 mmHg 68%
    07:00 +22°C° 0 mm 3 m/s 751 mmHg 63%
    08:00 +25°C° 0 mm 3 m/s 751 mmHg 57%
    09:00 +26°C° 0 mm 3 m/s 751 mmHg 51%
    10:00 +28°C° 0 mm 3 m/s 751 mmHg 46%
    11:00 +29°C° 0 mm 3 m/s 751 mmHg 45%
    12:00 +29°C° 0 mm 3 m/s 751 mmHg 43%
    13:00 +30°C° 0 mm 3 m/s 751 mmHg 42%
    14:00 +30°C° 0 mm 3 m/s 750 mmHg 43%
    15:00 +30°C° 0 mm 3 m/s 750 mmHg 43%
    16:00 +30°C° 0 mm 3 m/s 750 mmHg 43%
    17:00 +29°C° 0 mm 3 m/s 750 mmHg 49%
    18:00 +28°C° 0 mm 2 m/s 750 mmHg 55%
    19:00 +27°C° 0 mm 2 m/s 750 mmHg 61%
    20:00 +25°C° 0 mm 2 m/s 750 mmHg 67%
    21:00 +23°C° 0 mm 2 m/s 750 mmHg 72%
    22:00 +21°C° 0 mm 3 m/s 750 mmHg 77%
    23:00 +20°C° 0 mm 3 m/s 750 mmHg 77%

    10 Junho, Quarta-feira

    Tempo Temperatura Precipitação Vento Pressão Humidade
    00:00 +19°C° 0 mm 3 m/s 750 mmHg 78%
    01:00 +19°C° 0 mm 3 m/s 750 mmHg 79%
    02:00 +19°C° 0 mm 3 m/s 750 mmHg 79%
    03:00 +18°C° 0 mm 3 m/s 750 mmHg 80%
    04:00 +18°C° 0 mm 3 m/s 750 mmHg 80%
    05:00 +20°C° 0 mm 3 m/s 750 mmHg 75%
    06:00 +21°C° 0 mm 3 m/s 750 mmHg 69%
    07:00 +24°C° 0 mm 3 m/s 751 mmHg 64%
    08:00 +25°C° 0 mm 3 m/s 750 mmHg 57%
    09:00 +27°C° 0 mm 4 m/s 750 mmHg 51%
    10:00 +28°C° 0 mm 4 m/s 750 mmHg 44%
    11:00 +29°C° 0 mm 4 m/s 750 mmHg 42%
    12:00 +29°C° 0 mm 4 m/s 750 mmHg 40%
    13:00 +30°C° 0 mm 4 m/s 750 mmHg 38%
    14:00 +30°C° 0 mm 4 m/s 750 mmHg 39%
    15:00 +30°C° 0 mm 4 m/s 749 mmHg 39%
    16:00 +30°C° 0 mm 4 m/s 749 mmHg 40%
    17:00 +28°C° 0 mm 4 m/s 749 mmHg 46%
    18:00 +27°C° 0 mm 3 m/s 749 mmHg 52%
    19:00 +26°C° 0 mm 3 m/s 749 mmHg 58%
    20:00 +24°C° 0 mm 3 m/s 749 mmHg 63%
    21:00 +21°C° 0 mm 3 m/s 749 mmHg 68%
    22:00 +20°C° 0 mm 3 m/s 749 mmHg 74%
    23:00 +19°C° 0 mm 3 m/s 750 mmHg 75%
    Mostrar mais